loading
DOY 175 | 2024-06-23T12:22:10Z

THOR ABLESTAR DEB, 263

Orbit data source: Space-Track

THOR ABLESTAR DEB, 263 is space debris in LEO originally from a launch on Thu, 29 Jun 1961 UTC launched from the Air Force Eastern Test Range (AFETR). Debris objects in space refer to the collection of defunct objects orbiting the Earth. Examples of debris include non-operational satellites, rocket bodies, and fragments generated from explosions, collisions, or faulty payload assembly.

Loading next visibility...
Loading greatness...
THOR ABLESTAR DEB details
NORAD ID263
COSPAR ID
1961-015CK
Orbit
LEO
Last TLE update19 hours ago
Origin
Flag of USUSAF SSD (US)
ManufacturerUnknown
BusUnknown
MotorUnknown
MassWet unknown, Dry mass unknown
Launch date (UTC)
1961-06-29 (63 years ago)
Launch vehicleUnknown
Launch site
Air Force Eastern Test Range (AFETR)
Object type
Payload
Rocket body
Debris
Radar Cross SectionSmall (<0.1 m²)
Predictive object data (real-time)
Latitude-37.31982°
Longitude96.35229°
Altitude772.131 km
Speed7.461 km/s
Apparent Right ascension14h 52m 02s
Apparent Declination-48° 38' 27"
Sunlit
Object is in full shadow
Predictive observer data (real-time)
Local Sidereal Time23:30:21
Azimuth239.039° WSW
Elevation-53.565°
Doppler factor1
Orbital elements
Apogee813.616 km
Perigee677.57 km
Semi-major axis7,123.73 km
Eccentricity0.0095488
Inclination66.531°
RAAN285.9401°
Arg. of periapsis59.8283°
True anomaly54.29179°
Mean anomaly53.407°
Mean motion3.60979 °/min
BSTAR0.00044645
Period99.73 mins
Definitive object data (Epoch: 2024-06-22T17:07:20.48Z)
Latitude56.96537°
Longitude-103.88063°
Altitude715.748 km
Speed7.525 km/s
True Right ascension04h 17m 18s
True Declination56° 48' 25"
Sunlit
Object was in daylight at TLE epoch
TLE from 19 hours ago
0 THOR ABLESTAR DEB
1 00263U 61015CK  24174.71343149  .00001500  00000-0  44645-3 0  9996
2 00263  66.5310 285.9401 0095488  59.8283  53.4070 14.43423782278567
Epoch: 2024-06-22T17:07Z
No data available

THOR ABLESTAR DEB Visibility forecast

Observer location: 39.9160978°, -105.1181434, 0m alt.

THOR ABLESTAR DEB is not visible in the next 10 days
Span
Click to sort rows by Start time (UTC) header in descending order
Start Az.
Max El. time (UTC)
Max El. Az.
Max El.
End time (UTC)
End Az.